Location: Biltmore Gardens
(41.6070°N, 83.4666°W)
Time: 14:05:25
(UTC+00:00)

SPOT 1/Viking Rocket - Pass Details

Date: 14 July 2020
Orbit: 778 x 793 km, 98.5° (Epoch: 04 August)

Event Time Altitude Azimuth Distance (km) Brightness Sun altitude
Exits shadow 03:26:27 22° 199° (SSW) 1,647 4.9 -19.6°
Maximum altitude 03:29:26 45° 261° (W) 1,057 4.3 -19.9°
Drops below altitude 10° 03:34:24 10° 334° (NNW) 2,352 7.2 -20.4°
Sets 03:36:50 0° 341° (NNW) 3,288 8.2 -20.7°
